アトラス彗星

C/2023 C2 ( ATLAS )

English version
Home page
Updated on June 4, 2024

---------------------------------------------------------------------

・ プロフィール

発見日 2023年2月1日
発見光度 19.1等
発見者 Asteroid Terrestrial-Impact Last Alert System (ATLAS) search program

・ 写真集

・ 軌道要素

Epoch 2024 Mar. 31.0 TT = JDT 2460400.5
T 2024 Nov. 16.81448 TT                                 Rudenko
q   2.3684284            (2000.0)            P               Q
z  +0.0003046      Peri.  357.45745     +0.48937551     +0.59226561
 +/-0.0000043      Node   301.00865     -0.78635529     -0.01765324
e   0.9992787      Incl.   48.31690     -0.37703710     +0.80554939
>From 238 observations 2023 Feb. 1-2024 Mar. 19, mean residual 0".6.

・ 星図

・ 光度変化

        m1 = 7.0 + 5 logΔ + 10.0 log r

---------------------------------------------------------------------

軌道要素はM.P.E.C. 2024-F34に掲載されたものです。
星図はステラナビゲータ Ver.11 (アストロアーツ) で作成したものです。
光度グラフはComet for Windowsで作成したものです。

---------------------------------------------------------------------

Copyright(C) Seiichi Yoshida (comet@aerith.net). All rights reserved.